Regional Weather Roundup
Issued by NWS

Home | Current Version | Previous Version | Graphics & Text | Print | Product List | Glossary On
Versions: 1 2 3 4 5 6 7 8 9 10 11 12 13 14 15 16 17 18 19 20 21 22 23 24 25 26 27 28 29 30 31 32 33 34 35 36 37 38 39 40 41 42 43 44 45 46 47 48 49 50
000
ASUS43 KMKX 270711
RWRWI

WISCONSIN REGIONAL WEATHER ROUNDUP
NATIONAL WEATHER SERVICE MILWAUKEE/SULLIVAN WI
200 AM CDT SAT AUG 27 2016

NOTE: "FAIR" INDICATES FEW OR NO CLOUDS BELOW 12,000 FEET WITH NO
SIGNIFICANT WEATHER AND/OR OBSTRUCTIONS TO VISIBILITY.

WIZ001-002-006>008-014>016-023>028-270800-
NORTHWEST WISCONSIN

CITY           SKY/WX    TMP DP  RH WIND       PRES   REMARKS
SUPERIOR ARPT    N/A     51  51 100 CALM      30.10F FOG
ASHLAND        CLOUDY    52  51  97 SW3       30.14S
HAYWARD        CLOUDY    54  52  93 CALM      30.14F
SIREN          CLOUDY    58  56  94 CALM      30.12S
CUMBERLAND     CLOUDY    57  55  94 CALM      30.13S
RICE LAKE      CLOUDY    58  56  94 NE3       30.14S
CHETEK         NOT AVBL
LADYSMITH      CLOUDY    57  55  93 CALM      30.16R
EAU CLAIRE     CLOUDY    61  59  93 NW3       30.11S
MENOMONIE      CLOUDY    61  58  92 CALM      30.12R
NEW RICHMOND   CLOUDY    60  57  91 E3        30.12R
OSCEOLA        CLOUDY    60  60 100 CALM      30.14S
$$

WIZ003>005-009-010-017-018-270800-
NORTH CENTRAL WISCONSIN

CITY           SKY/WX    TMP DP  RH WIND       PRES   REMARKS
MANITOWISH WTR NOT AVBL
ARBOR VITAE    CLOUDY    57  54  89 CALM      30.16S
WOODRUFF       CLOUDY    57  54  89 CALM      30.16S
RHINELANDER    CLOUDY    57  56  96 CALM      30.16F
EAGLE RIVER    PTCLDY    52  52 100 CALM      30.16F
LAND O LAKES   PTCLDY    50  50 100 CALM      30.17F
PHILLIPS       CLOUDY    54  53  98 CALM      30.14F
TOMAHAWK       CLOUDY    52  51  96 CALM      30.16F
MEDFORD        CLOUDY    56  56 100 CALM      30.14F
MERRILL        CLOUDY    57  57  99 CALM      30.15F
$$

WIZ029-030-035-036-043>047-270800-
CENTRAL WISCONSIN

CITY           SKY/WX    TMP DP  RH WIND       PRES   REMARKS
WAUSAU         LGT RAIN  59  58  96 E3        30.14S
MOSINEE        LGT RAIN  59  59 100 CALM      30.16F
MARSHFIELD     LGT RAIN  61  57  87 S5        30.14F
STEVENS POINT  LGT RAIN  59  58  98 CALM      30.16F
WAUPACA        CLOUDY    64  63  97 N3        30.14F
WAUTOMA        CLOUDY    62  59  90 N5          N/A
WISC RAPIDS    RAIN      61  61 100 SE3       30.16F
CAMP DOUGLAS   LGT RAIN  61  61 100 CALM      30.13F
$$

WIZ011>013-019>022-031-037>040-048>050-270800-
NORTHEAST WISCONSIN

CITY           SKY/WX    TMP DP  RH WIND       PRES   REMARKS
ANTIGO         LGT RAIN  57  55  93 CALM      30.17S
SHAWANO        RAIN      63  59  88 CALM      30.16S
OCONTO         NOT AVBL
STURGEON BAY   CLOUDY    63  60  90 S3        30.16S
GREEN BAY      CLOUDY    63  63 100 CALM      30.13F
MANITOWOC      CLOUDY    62  60  93 CALM      30.14F
APPLETON       LGT RAIN  63  54  72 NE5       30.12F
CLINTONVILLE   LGT RAIN  61  59  94 NW5       30.15F
OSHKOSH        CLOUDY    65  59  81 CALM      30.11F
$$

WIZ032>034-041-042-053>061-270800-
SOUTHWEST WISCONSIN

CITY           SKY/WX    TMP DP  RH WIND       PRES   REMARKS
LA CROSSE      LGT RAIN  65  63  93 E3        30.11F
SPARTA         DRIZZLE   60  60 100 CALM      30.13F
VIROQUA        CLOUDY    59  58  97 E6        30.14S
BOSCOBEL       LGT RAIN  64  63  96 NE3       30.12F
PRAIRIE DU CHI LGT RAIN  62  58  87 NE3       30.09F
PLATTEVILLE    CLOUDY    64  64 100 N8        30.10R
$$

WIZ056-057-062-063-064-067-068-270800-
SOUTH CENTRAL WISCONSIN

CITY           SKY/WX    TMP DP  RH WIND       PRES   REMARKS
REEDSBURG      NOT AVBL
BARABOO/DELLS  CLOUDY    63  61  93 NE3       30.12F
LONE ROCK      LGT RAIN  63  61  93 N5        30.12F FOG
MINERAL POINT  CLOUDY    63  63 100 N8        30.11S
MADISON        CLOUDY    66  60  81 E6        30.11F
MIDDLETON      CLOUDY    67  61  81 E5        30.11F
WATERTOWN      CLOUDY    65  60  85 S14       30.15R THUNDER
MONROE         CLOUDY    63  61  94 E8        30.10F
JANESVILLE     CLOUDY    63  63 100 NE7       30.10F
$$

WIZ051-052-058>065-066-070>072-270800-
SOUTHEAST WISCONSIN

CITY           SKY/WX    TMP DP  RH WIND       PRES   REMARKS
MILWAUKEE      CLOUDY    67  61  81 E6        30.11F
WAUKESHA       HVY RAIN  63  59  88 CALM      30.14R
MILWAUKEE/TIMM CLOUDY    64  59  82 NE3       30.12F
RACINE         CLOUDY    68  61  78 E5        30.13F
BURLINGTON     CLOUDY    64  59  85 E5        30.11F
KENOSHA        CLOUDY    67  63  87 E6        30.11F
FOND DU LAC    MOCLDY    64  60  87 CALM      30.12F
SHEBOYGAN      CLOUDY    63  59  87 CALM      30.13F
WEST BEND      CLOUDY    63  59  88 NE3       30.11F
JUNEAU         CLOUDY    63  59  87 CALM      30.13F
$$

LSZ147-162-270800-
LAKE SUPERIOR

STATION/POSITION TIME  TEMP    WIND        PRES    WAVE
                       AIR SEA DIR/SP/G            HT/PER
                 (UTC) (F)     (DEG/KT/KT) (MB)    (FT/S)
W MID LAKE BUOY  0650   66 67  160/ 10/ 12 1019.8F   1
DEVILS ISLAND    0600   64     180/  5/  6 1020.2F
PORT WING        0640   60     130/  2/  5 1020.0F
SAXON HARBOR     0600   58     200/  5/  8 1020.3
$$

LMZ867-665-643>646-270800-
LAKE MICHIGAN

STATION/POSITION TIME  TEMP    WIND        PRES    WAVE
                       AIR SEA DIR/SP/G            HT/PER
                 (UTC) (F)     (DEG/KT/KT) (MB)    (FT/S)
CHAMBERS ISLAND  0600   69     360/  4/  7 1021.0R
S GREEN BAY BUOY 0530   68 72  300/  4/  6 1020.2F
N MID LAKE BUOY  0650   69 71  110/  6/  8 1020.5F   1
NORTHPORT PIER   0600   64     230/  4/  5 1020.3F
SISTER BAY       0607   65        CALM       N/A
KEWAUNEE LAKESHO 0600   63     290/  2/  3 1020.6R
SHEBOYGAN LAKESH 0700   60     110/  5/  5 1019.9F
PORT WASHINGTON  0600   65      20/  2/  3 1021.0S
ATWATER BUOY     0700   57      10/  4/  6   N/A
MILWAUKEE LAKESH 0610   65      40/  7/  7   N/A
S MID LAKE BUOY  0650   72 75   90/ 14/ 16 1019.0F   1/ 3
KENOSHA   LAKESH 0700   69     100/ 12/ 13 1019.3F
$$

TC  - TEMPERATURE IN CELSIUS
VSB - VISIBILITY IN STATUTE MILES
WCI - WIND CHILL INDEX
HX  - HEAT INDEX





USA.gov is the U.S. government's official web portal to all federal, state and local government web resources and services.